GEFSMW_con_maxscp_216.txt.gz
SCP
2 2 2 2 2 2 2 1 1 0 0 1 1 2 3 4 3 3 2 2 1 1 1 1 1 1 1 1 1 1 1 1 1 1 1 1 1 1 1 1 1 1 1
2 2 2 2 2 2 2 2 1 0 0 1 2 2 3 3 3 3 2 1 1 1 1 1 1 1 1 1 1 1 1 1 1 1 1 1 1 1 1 1 1 1 1
2 2 2 3 3 3 3 2 1 0 1 1 2 2 3 2 2 2 2 1 1 1 1 1 1 1 1 0 1 1 1 1 1 0 0 1 1 1 1 2 1 1 1
2 2 2 3 3 4 3 2 1 0 1 2 2 2 2 2 2 1 1 0 0 1 1 1 1 1 0 0 0 1 1 1 1 1 0 0 1 1 1 1 1 1 1
1 1 2 3 3 4 4 2 1 0 1 1 2 2 2 2 1 0 0 0 0 0 0 1 1 1 1 0 0 0 1 1 1 1 0 0 0 0 1 1 1 1 1
1 1 2 2 3 4 4 3 1 1 1 1 2 2 2 1 1 0 0 0 0 0 0 0 1 1 1 0 0 0 1 1 1 1 0 0 0 0 0 0 1 1 1
0 1 2 3 3 4 5 3 1 1 1 1 1 1 1 1 0 0 0 0 0 0 0 0 1 1 1 0 0 0 1 1 1 1 1 0 0 0 0 0 0 1 1
1 1 2 3 4 5 5 4 2 1 1 1 1 1 0 0 0 0 0 0 0 0 0 0 0 1 1 0 0 0 0 1 1 1 1 1 1 0 0 0 0 0 1
1 1 1 2 4 5 5 4 2 1 1 1 0 0 0 0 0 0 0 0 0 0 0 0 0 0 0 1 0 0 0 0 0 1 1 1 1 1 0 0 0 1 1
1 1 1 2 3 4 4 3 2 1 1 0 0 0 0 0 0 0 0 0 0 0 0 0 0 0 0 1 1 0 0 0 0 0 1 1 1 1 0 0 0 1 1
1 1 1 1 3 3 3 2 1 1 1 0 0 0 0 0 0 0 0 0 0 0 0 0 0 0 0 0 0 0 0 0 0 0 0 1 1 1 0 0 0 0 0
0 0 0 1 2 2 2 2 1 1 1 1 1 0 0 0 0 0 0 0 0 0 0 0 0 0 0 0 0 0 0 0 0 0 0 0 0 0 0 0 0 0 0
0 0 0 1 1 1 1 1 1 1 1 1 1 1 1 0 0 0 0 0 0 0 0 0 0 0 0 0 0 0 0 0 0 0 0 0 0 0 0 0 0 0 0
0 0 0 1 1 1 1 1 1 1 1 1 1 1 1 1 1 0 0 0 0 0 0 0 0 0 0 0 0 0 0 0 0 0 0 0 0 0 0 0 0 0 0
0 0 0 0 0 0 0 0 0 0 1 1 1 1 1 1 1 1 1 1 0 0 0 0 0 0 0 0 0 0 0 0 0 0 0 0 0 0 0 0 0 0 0
0 0 0 0 0 0 0 0 0 0 1 1 1 1 2 2 2 2 2 1 1 1 1 0 0 0 0 0 0 0 0 0 0 0 0 0 0 0 0 0 0 0 0
0 0 0 0 0 0 0 0 0 0 0 1 1 1 2 2 3 3 3 3 2 2 2 1 1 0 0 0 0 0 0 0 0 0 0 0 0 0 0 0 0 0 0
0 0 0 0 0 0 0 0 0 0 0 0 0 1 1 2 3 3 4 4 3 3 2 2 1 1 0 0 0 0 0 0 0 0 0 0 0 0 0 0 0 0 0
0 0 0 0 0 0 0 0 0 0 0 0 0 0 0 1 2 3 3 4 3 3 3 3 2 2 1 0 0 0 0 0 0 0 0 0 0 0 0 0 0 0 0
0 0 0 0 0 0 0 0 0 0 0 0 0 0 0 0 1 1 2 2 3 3 3 3 3 3 2 1 0 0 0 0 0 0 0 0 0 0 0 0 0 0 0
0 0 0 0 0 0 0 0 0 0 0 0 0 0 0 0 0 0 1 1 2 2 2 3 3 3 3 1 0 0 0 0 0 0 0 0 0 0 0 0 0 0 0
0 0 0 0 0 0 0 0 0 0 0 0 0 0 0 0 0 0 0 1 1 1 2 2 2 3 3 2 1 0 0 0 0 0 0 0 0 0 0 0 0 0 0
0 0 0 0 0 0 0 0 0 0 0 0 0 0 0 0 0 0 0 0 0 1 1 2 2 2 2 2 1 0 0 0 0 0 0 0 0 0 0 0 0 0 0
0 0 0 0 0 0 0 0 0 0 0 0 0 0 0 0 0 0 0 0 0 0 1 1 1 1 2 1 1 1 0 0 0 0 0 0 0 0 0 0 0 0 0
0 0 0 0 0 0 0 0 0 0 0 0 0 0 0 0 0 0 0 0 0 0 0 0 0 1 1 1 1 1 0 0 0 0 0 0 0 0 0 0 0 0 0
0 0 0 0 0 0 0 0 0 0 0 0 0 0 0 0 0 0 0 0 0 0 0 0 0 0 0 0 0 0 0 0 0 0 0 0 0 0 0 0 0 0 0

GEFSMW_con_maxscp_222.txt.gz
SCP
4 5 5 6 6 5 6 6 6 7 8 8 9 8 8 6 5 3 2 2 3 3 4 3 4 4 3 3 3 3 4 5 5 5 4 3 3 3 3 2 2 2 2
4 5 6 6 6 6 6 6 6 7 8 8 8 9 8 6 5 4 3 3 3 4 4 4 4 4 3 3 3 3 4 4 5 5 4 4 4 3 3 2 2 2 2
5 5 7 7 6 6 6 6 6 7 7 7 7 7 7 7 6 5 4 3 4 4 4 4 4 4 3 3 3 3 3 4 4 5 5 5 4 4 3 2 2 2 2
6 7 8 7 6 6 6 7 7 7 7 6 5 5 6 7 7 6 5 4 4 4 4 3 3 3 3 2 3 3 3 3 3 4 4 5 4 4 4 4 3 2 2
6 7 8 7 7 7 7 8 8 7 6 6 6 5 5 5 6 6 5 4 4 3 3 3 3 3 2 2 2 3 3 4 3 3 3 4 4 5 5 5 4 3 2
6 7 7 7 7 7 8 9 8 6 5 5 5 4 4 4 5 5 5 5 4 3 2 2 2 2 2 2 2 3 3 4 4 4 3 4 5 5 5 5 5 4 3
5 5 5 5 6 7 8 9 8 5 3 3 3 3 3 3 4 4 5 5 4 3 3 2 2 2 2 2 2 2 3 3 4 4 4 4 4 5 4 3 4 4 3
4 4 4 4 5 6 7 7 7 5 3 3 3 3 3 3 3 4 4 4 4 4 3 2 2 2 2 2 2 2 2 2 3 4 4 4 4 4 4 3 4 4 3
3 3 4 4 4 5 6 6 6 5 4 4 4 4 3 3 3 3 3 3 3 3 3 3 3 3 3 2 2 1 2 2 2 3 4 4 4 4 4 5 5 5 4
3 4 4 4 4 4 5 6 6 6 6 5 5 5 4 3 3 3 3 2 2 3 3 4 4 4 4 3 2 2 1 2 2 2 3 3 4 4 5 6 6 5 5
3 4 4 4 4 4 5 6 6 7 7 6 6 5 4 3 3 3 3 3 3 4 5 6 6 5 4 4 3 2 1 1 1 1 2 2 3 4 4 5 4 4 4
3 3 3 4 4 5 5 5 6 6 7 7 6 5 4 4 3 3 4 5 5 5 6 6 6 5 4 3 3 2 1 1 1 1 1 1 2 2 3 3 2 2 3
2 2 3 3 4 5 5 5 5 5 6 8 8 6 5 4 4 4 4 5 5 6 6 6 5 4 3 3 2 2 2 1 1 1 1 1 1 2 2 2 1 1 1
2 2 2 2 3 5 5 4 4 4 5 7 7 7 6 5 4 4 4 4 5 5 5 5 4 4 3 3 3 2 2 2 2 2 1 1 1 1 1 1 1 1 1
2 2 2 3 4 5 5 4 4 4 4 5 5 5 4 4 3 3 3 4 4 4 4 4 4 3 3 3 3 3 3 3 3 3 2 2 1 1 1 0 1 1 1
2 2 3 3 4 5 5 4 4 3 2 2 3 3 2 2 2 2 2 3 3 3 3 3 3 3 3 2 1 2 2 3 3 3 3 2 2 1 1 0 0 1 1
3 3 4 4 4 4 4 3 3 2 1 1 1 1 1 1 1 1 1 2 2 3 2 2 2 2 2 1 1 1 1 2 3 3 3 3 2 2 1 1 0 0 0
3 3 3 3 3 3 2 2 1 1 0 0 0 0 0 0 1 1 1 1 2 2 1 1 1 2 2 1 0 0 1 1 1 2 2 3 3 2 2 1 1 1 1
3 3 2 2 2 2 1 1 1 0 0 0 0 0 0 0 1 1 1 1 1 1 1 1 1 2 2 1 1 0 1 1 1 1 1 2 2 2 1 1 1 1 1
2 1 1 1 1 1 1 1 1 0 0 0 0 0 0 0 1 1 1 1 1 1 1 1 1 1 1 1 0 0 1 2 1 1 1 1 1 1 0 1 1 1 1
1 1 1 1 1 1 1 1 1 0 0 0 0 0 0 0 1 1 1 1 1 1 1 1 1 1 1 1 0 0 1 2 2 2 2 1 1 0 0 0 1 1 0
1 1 1 1 1 1 1 1 1 0 0 0 0 0 1 0 0 1 1 1 1 1 1 1 0 0 0 0 0 0 1 1 2 2 2 1 1 0 0 0 0 0 0
1 1 1 1 1 1 1 1 1 0 0 0 0 1 1 0 0 0 0 1 1 1 1 0 0 0 0 0 0 0 0 0 1 1 1 1 0 0 0 0 0 0 0
1 1 1 1 1 1 1 1 1 0 0 0 1 1 0 0 0 0 0 1 1 1 0 0 0 0 0 0 0 0 0 0 0 1 0 0 0 0 1 1 1 1 0
1 1 1 1 1 1 1 1 0 0 0 0 1 0 0 0 0 0 0 0 0 0 0 0 0 0 0 0 0 0 0 0 0 0 0 0 0 1 1 2 2 1 1
1 1 1 1 1 1 1 1 0 0 0 0 1 0 0 0 0 0 0 0 0 0 0 0 0 0 0 0 0 0 0 0 0 0 0 0 1 1 2 2 2 2 1

GEFSMW_con_maxscp_228.txt.gz
SCP
6 6 7 9 9 9 11 12 12 12 12 13 12 11 10 10 10 9 10 13 14 12 9 6 5 6 7 9 9 8 5 3 2 2 2 2 2 2 2 2 2 2 2
6 6 8 8 8 8 10 11 11 10 11 12 12 11 10 10 10 9 10 12 14 13 11 7 5 5 7 8 10 8 5 3 2 2 2 2 2 2 2 2 2 2 2
7 7 8 8 8 7 9 10 10 10 10 10 11 10 9 8 8 8 9 10 12 13 13 10 7 6 6 7 9 8 5 3 3 2 2 2 2 2 2 2 2 2 2
7 7 8 8 8 7 8 9 10 10 10 10 9 9 8 7 7 7 8 8 9 11 12 11 9 7 6 6 7 7 5 4 3 2 2 2 2 2 2 2 2 2 2
7 7 7 8 8 8 8 9 11 12 11 11 10 9 8 7 7 7 7 7 8 9 10 10 10 8 6 6 6 6 5 4 4 3 2 2 2 1 1 1 1 1 1
7 6 6 7 9 10 10 10 11 13 14 13 12 10 9 8 7 7 7 8 9 9 9 9 9 8 7 6 6 5 5 4 4 3 2 2 1 1 1 1 1 1 1
6 6 6 8 10 12 12 11 12 14 15 15 13 12 11 10 8 8 9 11 13 13 12 11 10 9 8 7 6 5 4 4 4 3 2 1 1 1 1 1 1 1 2
5 6 7 8 10 13 14 14 13 15 16 15 14 13 13 12 11 11 11 14 16 17 17 15 12 10 7 6 5 5 5 5 4 3 2 2 2 2 1 1 1 1 1
5 6 7 9 11 13 15 16 15 15 15 15 13 13 13 14 14 14 14 15 17 19 18 16 12 9 7 6 5 5 5 5 4 3 2 2 2 2 1 1 1 1 1
6 6 7 9 12 14 16 17 17 16 15 14 12 11 12 13 14 15 17 17 18 18 17 15 11 8 7 6 6 5 5 5 4 3 2 2 1 1 1 1 1 1 1
5 5 6 9 12 15 16 18 19 17 15 12 11 10 11 11 13 15 17 17 16 16 16 14 11 8 7 7 6 5 4 4 4 3 2 1 1 1 1 1 1 1 1
3 3 5 8 11 14 16 17 19 18 15 13 12 11 11 10 11 12 13 13 13 13 12 11 9 7 6 7 5 4 3 3 3 3 2 2 2 2 1 1 1 1 1
2 3 5 8 9 11 14 17 19 18 16 15 15 14 12 10 9 9 9 8 8 8 7 6 5 4 4 5 4 3 3 3 3 3 3 3 2 2 2 1 1 1 1
3 4 7 9 9 9 13 18 21 19 17 16 16 14 12 10 8 6 6 5 4 4 3 3 2 2 2 3 3 3 3 3 3 3 3 3 3 2 2 2 1 1 1
3 5 7 9 9 9 13 18 22 20 16 15 13 12 10 8 6 4 4 3 2 2 2 2 2 2 2 2 3 3 4 4 4 4 4 3 3 2 2 2 1 1 1
3 4 6 9 11 12 15 20 22 20 16 13 10 8 6 4 3 2 2 2 2 2 2 2 2 3 3 2 2 2 3 4 4 4 4 3 3 2 2 1 1 1 1
3 4 7 12 16 16 17 19 19 16 12 9 6 4 2 2 1 1 1 1 1 1 2 2 2 2 2 2 1 1 2 3 4 4 4 3 2 2 2 1 1 1 1
5 6 9 13 16 16 15 13 11 8 5 3 2 1 1 1 1 1 1 1 1 1 1 1 1 1 1 1 0 0 1 2 3 3 3 3 2 2 2 1 1 1 1
4 5 7 9 10 10 9 6 4 2 1 1 1 0 0 1 1 1 1 1 1 1 1 1 1 1 1 1 0 0 1 1 2 2 2 2 2 2 1 1 1 2 2
2 3 3 5 6 6 5 3 1 1 1 0 0 0 1 1 1 1 1 1 1 1 1 1 1 2 1 1 0 0 0 1 1 2 2 2 1 1 0 1 1 1 2
2 2 3 3 5 5 4 2 1 1 1 0 0 1 1 1 1 1 1 1 1 1 1 1 1 1 1 1 0 0 0 1 1 1 1 1 1 0 0 0 1 1 1
3 3 4 4 5 5 4 2 1 1 1 1 1 1 1 1 1 1 2 2 1 1 1 1 1 1 1 1 1 0 0 0 1 1 1 1 0 0 0 0 0 0 0
3 4 4 4 4 3 2 1 1 1 1 1 1 1 1 1 2 2 2 2 2 2 1 1 1 1 1 1 1 1 0 0 0 1 1 0 0 0 0 0 0 0 0
4 3 3 3 2 2 1 1 1 1 1 1 2 2 1 1 2 2 2 2 2 2 1 1 1 2 2 2 2 2 1 1 0 0 0 0 0 0 0 0 0 0 1
3 2 2 2 1 1 1 1 1 1 1 2 2 1 1 1 2 2 2 1 1 1 1 1 1 1 1 1 1 1 1 1 0 0 0 0 0 0 0 0 0 1 1
2 2 2 2 1 1 1 1 1 1 1 2 1 1 1 1 1 1 1 1 1 1 1 1 1 1 1 1 1 1 1 0 0 0 0 0 0 0 0 0 1 1 1

GEFSMW_con_maxscp_234.txt.gz
SCP
7 7 5 4 4 5 6 7 8 8 8 7 7 6 6 6 5 4 4 4 4 4 3 3 3 2 2 2 2 1 1 1 1 1 1 1 1 1 0 0 0 0 0
7 7 5 4 4 5 6 7 7 7 7 7 7 6 5 5 4 4 4 5 5 5 4 3 3 3 3 2 2 2 1 1 1 1 1 0 1 0 0 0 0 0 0
7 7 5 4 4 5 5 6 6 6 6 6 6 6 5 4 4 4 4 5 5 5 5 4 3 3 3 3 2 2 2 2 1 1 0 0 0 0 0 0 0 0 0
6 6 5 4 4 4 5 5 5 5 5 5 5 5 5 4 4 3 3 3 4 5 5 4 4 3 3 3 3 3 3 2 2 1 1 1 0 0 0 0 0 0 0
5 5 4 4 4 4 4 5 4 4 4 4 5 5 4 4 3 3 2 2 3 3 4 4 4 4 3 3 3 3 3 3 3 2 1 1 0 0 0 0 0 0 0
4 4 4 4 4 4 4 4 4 4 4 4 4 4 4 4 3 3 3 3 2 3 3 4 4 4 4 3 3 3 3 3 3 2 1 1 0 0 0 0 0 0 0
4 4 5 5 4 4 4 4 4 4 4 4 4 4 4 4 4 4 4 4 4 4 4 4 4 5 4 4 3 3 3 3 3 2 2 1 1 0 0 0 0 0 0
5 6 5 5 5 5 5 5 4 4 4 4 4 4 5 5 5 6 6 6 6 6 5 5 5 5 4 4 4 3 3 3 2 2 2 2 1 1 0 0 0 0 0
6 6 6 5 4 5 5 6 6 6 5 5 5 5 6 6 7 7 7 7 7 6 5 5 4 5 5 5 4 3 3 2 2 2 2 2 2 1 0 0 0 0 0
5 6 6 5 5 4 5 6 7 8 8 7 7 6 6 7 7 7 7 6 5 4 3 3 3 3 4 4 4 2 1 1 1 1 2 2 2 1 1 0 0 0 0
4 4 5 5 5 4 3 4 6 8 8 8 7 7 6 5 5 5 4 3 2 2 1 1 1 1 2 2 2 2 1 1 1 1 1 1 1 1 1 1 0 0 0
5 5 5 5 4 3 2 2 5 7 8 8 8 6 5 4 3 2 2 1 1 1 0 0 0 0 0 1 1 1 1 0 0 0 0 0 0 1 1 0 0 0 0
5 5 5 4 2 1 1 1 3 5 7 8 8 6 5 3 2 1 1 1 0 0 0 0 0 0 0 0 0 0 0 0 0 0 0 0 0 0 0 0 0 0 0
3 3 2 2 1 1 1 1 3 4 6 8 7 5 4 3 2 1 0 0 0 0 0 0 0 0 0 0 0 0 0 0 0 0 0 0 0 0 0 0 0 0 0
1 1 0 1 1 1 1 2 3 4 5 6 6 4 3 2 1 1 0 0 0 0 0 0 0 0 0 0 0 0 0 0 0 0 0 0 0 0 0 0 0 0 0
1 1 1 1 1 1 2 3 4 4 4 4 4 2 1 1 1 1 0 0 0 0 0 0 0 0 0 0 0 0 0 0 0 0 0 0 0 0 0 0 0 0 0
2 2 2 2 1 2 3 4 4 3 3 2 2 1 1 0 0 0 0 0 0 0 0 0 0 0 0 0 0 0 0 0 0 0 0 0 0 0 0 0 0 0 0
3 3 3 3 2 3 3 3 3 2 2 1 1 0 0 0 0 0 0 0 0 0 0 0 0 0 0 0 0 0 0 0 0 0 0 0 0 0 0 0 0 0 0
3 3 3 3 3 2 2 2 2 1 1 1 0 0 0 0 0 0 0 0 0 0 0 0 0 0 0 0 0 0 0 0 0 0 0 0 0 0 0 0 0 0 0
3 4 3 3 2 2 1 1 1 1 1 0 0 0 0 0 0 0 0 0 0 0 0 0 0 0 0 0 0 0 0 0 0 0 0 0 0 0 0 0 0 0 0
4 4 3 2 1 1 1 1 1 1 0 0 0 0 0 0 0 0 0 0 0 0 1 1 1 1 0 0 0 0 0 0 0 0 0 0 0 0 0 0 0 0 0
3 3 2 2 1 1 1 1 1 0 0 0 0 0 0 0 0 0 0 0 0 1 1 1 1 0 0 0 0 0 0 0 0 0 0 0 0 0 0 0 0 0 0
2 2 2 1 1 1 1 1 0 0 0 0 0 0 0 0 0 0 0 0 0 0 0 0 0 0 0 0 0 0 0 0 0 0 0 0 0 0 0 0 0 0 0
1 1 1 1 1 0 0 0 0 0 0 0 0 0 0 0 0 0 0 0 0 0 0 0 0 0 0 0 0 0 0 0 0 0 0 0 0 0 0 0 0 0 0
1 1 1 0 0 0 0 0 0 0 0 0 0 0 0 0 0 0 0 0 0 0 0 0 0 0 0 0 0 0 0 0 0 0 0 0 0 0 0 0 0 0 0
1 1 0 0 0 0 0 0 0 0 0 0 0 0 0 0 0 0 0 0 0 0 0 0 0 0 0 0 0 0 0 0 0 0 0 0 0 0 0 0 0 0 0

GEFSMW_con_maxscp_240.txt.gz
SCP
3 3 3 3 4 5 5 4 2 2 2 2 3 4 4 4 4 3 3 3 3 3 3 2 2 2 3 3 3 3 2 2 1 1 1 1 1 0 0 0 1 1 1
3 3 4 4 4 5 5 4 3 2 2 2 3 4 4 4 3 2 2 2 2 2 1 1 2 2 2 2 2 2 2 2 1 1 1 1 1 1 0 1 1 1 1
3 4 4 5 5 5 5 4 3 2 2 2 2 3 3 2 2 1 1 1 1 1 1 1 1 1 2 2 2 2 2 2 1 1 1 1 1 1 0 1 1 1 1
3 4 5 5 5 5 4 3 2 2 2 2 2 2 2 1 1 1 1 1 1 1 1 1 1 2 2 2 2 2 3 3 2 2 2 1 1 1 0 0 0 0 0
3 4 5 6 5 3 2 2 2 2 2 2 2 2 2 2 2 2 1 1 1 1 2 2 2 2 2 3 3 3 3 3 3 3 3 2 2 1 1 1 1 0 0
3 4 6 6 5 2 2 2 2 2 2 3 3 3 2 2 2 2 2 1 1 1 2 2 2 2 3 3 3 3 4 4 4 4 4 4 3 3 2 1 1 1 1
2 3 6 7 4 3 3 3 3 3 3 3 3 3 3 3 2 2 2 1 1 1 1 1 2 2 3 3 3 3 4 4 4 4 5 5 4 4 3 3 2 1 1
2 4 6 7 4 4 4 4 4 3 3 3 3 3 3 3 2 2 1 1 1 1 1 1 2 2 2 3 3 3 3 3 3 3 4 5 4 4 4 4 3 2 2
3 4 6 6 5 5 5 5 5 4 4 2 2 3 3 3 3 2 2 1 1 1 1 1 1 2 2 2 2 2 2 2 2 3 3 4 4 4 4 3 3 2 2
5 5 5 5 5 5 5 5 5 5 4 2 1 2 2 2 3 3 2 1 1 1 0 1 1 1 1 1 1 1 2 2 2 2 3 3 3 2 2 2 2 1 1
6 5 5 4 4 4 4 3 4 4 3 2 1 1 1 2 2 2 2 1 1 0 0 0 0 0 0 0 0 1 1 1 1 1 2 2 1 1 1 1 1 1 1
5 4 3 3 2 2 2 2 1 1 1 1 1 1 1 1 2 2 2 1 1 0 0 0 0 0 0 0 0 0 0 0 0 0 1 1 1 1 1 1 1 1 1
2 2 1 1 1 1 1 1 1 1 1 1 1 1 1 1 1 2 2 1 1 0 0 0 0 0 0 0 0 0 0 0 0 0 0 0 0 0 1 1 1 1 1
1 1 0 1 1 1 1 1 1 1 1 1 1 0 0 1 1 2 2 1 1 0 0 0 0 0 0 0 0 0 0 0 0 0 0 0 0 0 0 1 1 1 1
0 0 0 0 0 1 1 1 1 1 1 1 1 0 0 0 1 2 2 1 1 0 0 0 0 0 0 0 0 0 0 0 0 0 0 0 0 0 0 0 0 0 0
0 0 0 0 0 1 1 1 1 1 1 1 1 0 0 0 1 2 2 1 1 0 0 0 0 0 0 0 0 0 0 0 0 0 0 0 0 0 0 0 0 0 0
0 0 0 0 0 1 1 1 1 1 1 1 1 0 0 1 1 2 2 1 1 0 0 0 0 0 0 0 0 0 0 0 0 0 0 0 0 0 0 0 0 0 0
0 0 0 0 0 1 1 1 2 2 1 1 1 1 1 1 1 1 1 1 1 0 0 0 0 0 0 0 0 0 0 0 0 0 0 0 0 0 0 0 0 0 0
0 0 0 0 0 1 1 2 2 2 2 1 1 1 0 0 1 1 1 0 0 0 0 0 0 0 0 0 0 0 0 0 0 0 0 0 0 0 0 0 0 0 0
0 0 0 0 0 1 2 2 3 2 2 1 1 1 0 0 0 0 0 0 0 0 0 0 0 0 0 0 0 0 0 0 0 0 0 0 0 0 0 0 0 0 0
1 1 1 1 1 1 2 3 3 2 2 2 1 1 0 0 0 0 0 0 0 0 0 0 0 0 0 0 0 0 0 0 0 0 0 0 0 0 0 0 0 0 0
2 2 2 2 2 2 3 3 2 2 2 1 1 0 0 0 0 0 0 0 0 0 0 0 0 0 0 0 0 0 0 0 0 0 0 0 0 0 0 0 0 0 0
3 3 3 3 2 2 2 2 2 2 1 1 0 0 0 0 0 0 0 0 0 0 0 0 0 0 0 0 0 0 0 0 0 0 0 0 0 0 0 0 0 0 0
4 4 4 3 2 2 1 1 1 1 1 0 0 0 0 0 0 0 0 0 0 0 0 0 0 0 0 0 0 0 0 0 0 0 0 0 0 0 0 0 0 0 0
4 4 4 3 2 1 1 1 1 1 0 0 0 0 0 0 0 0 0 0 0 0 0 0 0 0 0 0 0 0 0 0 0 0 0 0 0 0 0 0 0 0 0
4 4 3 3 2 1 1 1 1 0 0 0 0 0 0 0 0 0 0 0 0 0 0 0 0 0 0 0 0 0 0 0 0 0 0 0 0 0 0 0 0 0 0

GEFSMW_con_maxscp_246.txt.gz
SCP
2 2 2 3 4 5 5 6 6 8 9 9 8 7 6 6 6 7 7 5 3 3 3 3 4 4 4 4 4 4 5 5 5 5 4 4 3 3 3 2 2 2 2
2 2 3 3 4 5 5 6 7 8 9 10 9 8 7 6 6 5 4 3 3 3 3 3 3 4 4 3 3 3 4 4 4 4 4 3 3 3 3 3 2 2 2
3 3 3 3 4 4 4 5 6 8 10 10 10 8 7 5 4 3 3 2 2 2 2 2 2 3 3 3 3 3 3 3 3 4 4 4 3 3 3 3 3 3 3
3 3 3 3 4 4 3 4 6 8 10 10 10 8 6 4 3 3 3 3 2 2 2 2 2 2 2 3 3 3 3 3 3 4 4 4 4 4 4 3 3 3 4
3 3 3 3 4 4 4 4 5 7 9 10 9 8 6 4 3 4 4 4 4 3 3 3 3 3 3 3 3 3 3 4 4 5 5 5 5 5 4 4 3 3 4
5 5 4 4 5 4 4 4 4 7 8 9 8 7 6 5 4 5 7 7 7 5 4 3 3 3 3 3 3 4 4 4 5 5 6 6 7 6 5 4 3 3 3
7 7 6 6 5 4 4 4 5 6 7 7 7 6 6 5 6 8 10 10 9 7 5 4 4 4 4 4 4 4 4 4 4 5 5 6 6 6 6 5 4 4 3
7 7 6 6 6 5 5 5 6 7 7 7 6 7 7 8 9 11 12 11 8 7 5 4 4 4 3 3 3 3 3 3 3 3 3 4 4 4 4 4 4 3 3
5 5 5 6 8 8 8 7 8 8 8 8 9 10 10 10 10 10 9 7 5 4 3 3 3 3 2 2 2 1 1 1 1 2 2 2 3 3 3 3 3 2 2
4 4 6 9 11 12 11 11 11 11 11 11 11 11 10 9 7 6 5 4 3 2 2 2 2 2 2 2 2 1 1 1 1 1 1 2 2 2 2 2 1 1 1
4 6 9 11 12 11 11 12 13 13 12 11 9 7 6 5 4 3 3 3 2 2 1 1 1 2 2 2 2 1 1 1 1 1 1 1 1 1 1 1 1 1 1
4 5 7 8 7 7 7 8 10 9 8 6 5 3 2 2 2 3 3 3 2 2 2 2 1 1 1 2 2 1 1 1 1 1 1 1 1 1 1 1 1 1 1
3 4 4 5 4 4 4 4 4 4 3 3 2 2 2 2 2 2 3 3 2 2 2 2 1 1 1 2 2 2 1 1 1 1 1 1 1 1 1 1 1 1 1
3 4 5 5 5 5 4 4 3 3 2 2 2 1 1 1 2 2 2 2 2 2 2 1 1 1 1 2 2 2 2 2 2 1 1 1 1 1 1 1 1 1 1
2 3 4 5 6 6 6 5 4 3 3 2 1 1 2 1 1 1 2 2 2 1 1 1 1 1 1 2 2 2 2 2 2 1 1 1 1 1 1 1 1 1 1
2 2 3 3 4 4 5 5 4 4 3 2 2 2 2 1 1 1 1 1 1 1 1 1 1 1 1 1 1 1 1 1 1 1 1 1 1 0 0 0 0 0 1
1 1 2 2 2 2 3 3 3 3 2 2 2 2 2 2 1 1 1 1 1 1 1 1 1 1 1 0 0 0 1 1 1 1 1 1 1 1 1 0 0 0 0
1 1 1 1 1 2 2 2 2 2 2 2 1 2 2 2 2 1 1 1 1 1 1 1 1 1 1 0 0 0 0 1 1 1 1 1 1 1 1 1 1 1 1
1 1 1 1 2 2 2 2 2 1 1 1 1 1 1 1 1 1 1 1 1 1 1 1 1 1 1 0 0 0 0 1 1 1 1 1 1 1 0 1 1 1 1
1 1 2 2 2 2 2 2 1 1 1 1 1 1 1 1 1 1 2 2 2 2 2 1 1 1 1 0 0 0 1 1 1 1 1 1 1 0 0 0 1 1 1
1 2 2 2 2 2 2 1 1 1 1 1 1 1 1 1 1 1 2 2 2 2 2 2 1 1 1 0 0 0 0 1 1 1 1 1 0 0 0 0 1 1 1
1 2 2 2 2 1 1 1 1 1 1 1 1 1 1 1 1 1 1 2 2 2 2 2 2 1 1 1 0 0 0 0 1 1 1 1 0 0 0 0 0 0 0
1 1 1 2 2 1 1 1 1 1 1 1 1 1 1 1 1 1 1 1 2 1 1 1 1 1 1 1 0 0 0 0 1 1 1 0 0 0 0 0 0 0 0
1 1 1 1 1 1 1 1 1 2 2 2 2 1 1 1 1 1 1 1 1 1 1 1 1 1 1 1 1 0 0 0 0 1 0 0 0 0 0 0 0 1 1
1 1 1 1 1 1 1 1 2 2 2 2 2 2 1 1 1 1 1 1 1 1 1 1 1 1 1 1 0 0 0 0 0 0 0 1 1 1 1 1 1 1 1
1 1 1 1 1 1 1 1 2 2 2 2 2 2 1 1 1 1 1 1 1 1 0 0 0 0 0 0 0 0 0 0 0 0 1 1 1 1 1 1 1 1 1

GEFSMW_con_maxscp_252.txt.gz
SCP
6 6 6 6 8 11 13 12 10 9 12 16 19 20 19 16 14 13 14 16 18 18 16 15 14 13 10 8 6 5 5 5 4 3 2 2 2 3 3 3 3 3 2
5 5 6 6 8 11 12 11 10 9 11 16 20 21 20 17 14 14 15 15 15 14 11 10 10 9 8 6 5 5 5 4 4 4 3 3 4 4 3 3 3 3 3
5 6 6 7 9 11 11 11 10 10 11 16 20 22 21 18 14 14 15 15 14 11 7 5 5 5 5 5 5 5 5 4 4 4 5 5 6 6 5 4 4 4 4
5 6 7 8 9 10 10 10 11 11 12 16 20 22 20 17 15 15 16 15 13 10 6 4 4 4 4 4 5 5 5 5 5 6 7 7 7 7 6 5 4 5 5
5 6 8 10 10 10 10 11 12 13 14 17 21 23 20 17 16 16 16 15 13 8 5 4 4 5 4 5 5 5 5 5 6 6 7 7 7 6 6 5 4 4 4
8 8 10 12 12 12 13 14 15 15 15 17 21 24 22 19 17 16 16 14 11 6 4 4 5 5 5 5 6 6 5 5 5 5 6 6 6 6 5 5 4 2 2
12 13 14 15 16 16 16 17 19 18 16 16 21 25 23 19 16 15 15 14 9 5 4 5 5 6 6 6 7 8 6 5 4 4 4 5 5 5 4 3 2 1 1
12 13 14 15 15 16 17 21 24 22 17 16 21 25 23 18 16 15 16 15 11 8 6 6 6 6 6 6 7 8 7 6 5 4 3 3 3 3 3 2 1 1 1
8 9 11 13 14 18 22 25 26 22 15 16 21 24 21 17 15 15 15 14 12 9 7 7 6 6 5 5 6 6 5 5 4 3 3 2 2 2 2 2 2 1 1
6 8 10 12 15 20 24 23 20 15 12 15 21 22 19 16 13 11 11 9 7 6 5 5 5 5 5 5 5 4 4 4 4 3 3 2 2 2 2 2 2 1 1
6 9 12 13 13 15 18 17 13 10 9 12 17 17 15 13 10 7 6 5 4 3 3 4 4 5 5 5 5 4 4 4 4 4 3 2 2 2 2 2 2 2 2
9 11 14 14 11 11 14 14 11 8 7 8 10 11 10 9 7 5 4 4 4 3 3 4 4 4 4 4 4 4 4 4 5 4 3 3 3 2 2 2 2 2 2
11 11 12 12 11 12 14 12 9 7 6 5 6 7 7 6 5 4 4 4 4 4 4 4 4 4 4 4 3 3 3 4 4 5 4 3 3 3 3 2 2 2 2
8 8 8 9 9 9 10 9 8 6 6 5 5 5 5 4 4 4 4 4 3 3 3 4 4 4 3 3 3 3 2 3 3 4 4 3 3 3 3 2 2 2 2
4 5 6 7 8 7 7 7 7 7 6 6 6 5 4 4 4 4 4 3 3 3 3 4 4 4 3 3 2 2 2 2 2 3 2 2 2 2 2 2 2 2 2
4 4 6 8 8 7 6 6 6 6 6 6 6 6 5 4 5 4 3 2 2 3 3 3 3 3 2 2 1 1 1 2 2 2 1 1 1 1 1 1 1 1 1
5 5 7 9 9 8 6 5 5 5 4 4 4 4 4 5 5 5 4 3 2 3 3 2 2 2 2 1 0 0 1 1 1 1 1 1 1 1 1 1 1 1 1
6 7 8 9 9 9 7 6 5 4 3 2 2 2 3 4 5 5 4 3 3 3 3 2 2 2 2 1 0 0 1 1 1 1 1 1 1 1 1 1 1 1 1
8 8 8 8 9 9 8 7 5 4 3 3 2 2 3 3 3 3 3 3 3 3 2 2 2 2 2 1 0 0 1 1 1 1 1 1 1 1 0 1 1 1 1
8 7 7 8 10 9 8 7 6 4 3 3 3 3 3 3 3 3 3 3 3 3 2 2 2 2 2 1 0 0 1 1 1 1 1 1 1 0 0 1 1 1 1
5 5 6 9 10 9 7 6 5 4 3 3 3 4 4 3 3 3 3 3 3 3 2 2 2 2 2 1 0 0 1 1 1 1 1 1 0 0 0 0 1 1 1
4 4 7 9 9 7 6 5 5 4 3 3 3 3 3 2 2 2 3 3 2 2 2 2 2 2 2 1 0 0 0 0 1 1 1 1 0 0 0 0 0 0 0
3 4 6 8 8 6 6 5 5 4 3 3 2 2 2 1 1 2 2 2 1 1 2 2 2 2 2 1 1 0 0 0 0 1 0 0 0 0 0 0 0 0 0
2 4 6 7 6 5 5 5 5 4 3 2 2 1 1 1 1 1 1 1 1 1 2 2 2 2 1 1 0 0 0 0 0 0 0 0 0 0 0 0 0 1 1
2 3 6 6 4 4 5 5 5 4 3 2 2 1 1 1 1 1 1 1 1 1 2 2 2 2 1 1 0 0 0 0 0 0 0 0 0 0 0 1 1 1 1
2 3 5 5 3 3 4 4 4 3 3 2 2 1 1 1 1 1 1 1 1 1 1 2 2 2 1 0 0 0 0 0 0 0 0 0 1 1 1 1 1 1 1

GEFSMW_con_maxscp_258.txt.gz
SCP
9 9 10 9 5 3 5 7 9 9 8 7 6 5 4 4 4 3 3 2 3 3 4 4 4 5 4 3 2 2 1 1 1 1 1 0 0 1 1 1 1 1 1
10 11 12 9 5 4 6 8 10 10 8 7 7 6 5 5 4 4 3 3 3 4 4 4 4 3 3 2 1 1 1 1 1 1 1 1 1 1 1 1 1 1 1
12 16 17 11 6 6 8 10 12 11 9 8 8 8 7 7 6 6 6 5 5 5 5 4 3 2 2 2 1 1 1 1 1 1 1 1 1 1 1 1 1 1 1
12 17 17 12 7 7 10 13 13 12 11 10 9 9 8 8 8 9 10 9 7 7 7 4 3 2 2 2 2 1 1 2 2 2 1 1 1 1 1 1 1 1 1
9 13 13 10 8 9 12 15 15 14 12 11 10 9 8 8 9 10 12 12 11 10 9 6 3 3 3 3 2 2 2 2 2 2 2 1 1 1 2 1 1 1 1
8 10 11 11 11 13 14 16 15 15 13 12 10 9 8 8 8 10 13 14 14 13 10 6 4 3 3 3 3 3 3 3 3 2 2 1 1 1 1 1 1 1 0
10 10 11 13 14 14 15 16 16 17 16 14 12 10 9 8 8 10 13 15 15 14 11 7 5 5 4 4 4 4 4 3 2 2 1 1 1 1 1 0 0 0 0
10 10 10 11 12 13 15 16 18 20 19 16 13 10 9 8 7 8 11 14 15 14 11 6 5 4 4 3 3 3 3 2 2 1 1 1 0 0 0 0 0 0 0
7 7 8 8 9 11 13 16 18 19 18 15 11 9 8 7 6 6 9 11 13 13 9 5 3 2 2 2 1 1 1 1 1 1 1 1 1 0 0 0 0 0 0
5 6 7 7 7 8 10 12 14 14 13 11 8 6 6 5 5 5 7 9 11 10 6 3 1 1 1 1 1 1 1 1 1 1 1 1 1 1 1 0 0 0 0
4 4 6 6 5 5 6 7 8 9 10 8 6 5 5 5 4 4 6 8 9 7 4 2 1 1 1 1 1 1 1 1 1 1 1 1 1 1 1 1 0 0 0
2 3 4 4 4 4 5 6 6 8 8 7 6 5 5 4 4 4 5 7 6 4 3 2 1 1 1 1 1 1 1 1 1 1 2 2 2 1 1 1 1 1 0
2 2 3 3 3 4 5 5 5 6 7 6 5 5 5 4 3 3 4 5 4 3 3 2 1 1 1 1 1 1 1 1 1 1 1 2 2 1 1 1 1 1 1
3 3 3 3 3 4 4 4 4 5 6 6 5 5 4 4 3 3 3 4 4 4 3 2 1 1 1 1 1 1 1 1 1 1 1 1 1 1 1 1 1 1 1
5 5 4 3 3 4 4 3 3 4 6 6 5 4 4 4 3 3 3 4 3 3 2 1 1 1 1 0 0 0 1 1 1 1 1 1 1 1 1 1 1 1 1
5 5 5 3 3 3 4 3 3 4 6 6 5 4 4 4 3 3 3 3 3 2 1 1 1 1 0 0 0 0 0 1 1 1 0 0 0 0 0 0 0 0 0
3 4 4 4 3 3 3 3 3 4 5 5 4 4 4 3 3 2 2 2 2 1 1 1 1 1 0 0 0 0 0 0 0 0 0 0 0 0 0 0 0 0 0
2 3 3 3 3 3 3 2 2 3 3 3 3 3 3 2 2 2 2 1 1 1 1 0 0 0 0 0 0 0 0 0 0 0 0 0 0 0 0 0 0 0 0
2 2 2 2 2 2 2 2 2 2 2 2 2 2 2 2 1 1 1 1 1 0 0 0 0 0 0 0 0 0 0 0 0 0 0 0 0 0 0 0 0 0 0
2 2 2 2 1 1 1 2 2 2 1 1 2 1 1 1 1 1 1 1 0 0 0 0 0 0 0 0 0 0 0 0 0 0 0 0 0 0 0 0 0 0 0
2 1 1 1 1 1 1 2 2 2 1 2 2 2 1 1 1 0 0 1 1 1 1 0 0 0 0 0 0 0 0 0 0 0 0 0 0 0 0 0 0 0 0
1 1 1 1 1 1 1 2 2 2 2 2 2 2 2 1 1 0 0 1 1 1 1 1 1 0 0 0 0 0 0 0 0 0 0 0 0 0 0 0 0 0 0
1 1 1 1 1 1 1 1 1 1 2 3 3 3 2 1 1 0 1 1 1 1 1 1 1 1 1 0 0 0 0 0 0 0 0 0 0 0 0 0 0 0 0
1 1 1 1 1 1 1 1 1 1 2 3 3 3 2 1 1 1 1 1 1 1 1 1 1 1 1 1 0 0 0 0 0 0 0 0 0 0 0 0 0 0 0
1 1 1 1 1 1 1 1 1 2 2 3 3 2 2 1 1 1 1 1 1 1 1 1 1 1 1 1 0 0 0 0 0 0 0 0 0 0 0 0 0 0 0
1 1 1 1 1 1 1 1 1 2 2 2 2 2 2 2 2 2 1 1 1 1 1 1 1 1 1 1 0 0 0 0 0 0 0 0 0 0 0 0 0 0 0

GEFSMW_con_maxscp_264.txt.gz
SCP
0 1 2 2 2 2 2 2 4 5 4 2 2 2 2 2 2 2 1 1 1 2 2 2 2 2 2 2 2 2 1 1 2 2 2 1 1 1 1 2 2 1 1
1 1 2 2 2 2 2 2 3 5 4 3 2 2 2 2 2 2 1 2 2 2 2 2 3 3 3 3 2 1 1 1 1 2 2 1 1 1 1 2 2 2 2
1 1 1 2 2 2 2 3 3 4 5 5 4 4 4 3 3 2 2 2 2 2 3 3 4 4 3 2 2 1 1 1 1 1 1 1 1 1 1 2 2 2 2
1 2 2 2 2 3 3 3 4 4 5 6 6 6 6 5 4 3 2 2 3 3 3 4 4 3 3 2 1 1 1 2 2 1 1 1 1 2 2 2 2 2 2
2 2 3 3 3 3 3 3 4 5 6 7 8 8 8 6 5 4 3 3 3 3 3 3 3 2 2 1 1 2 2 2 2 2 2 2 2 2 2 2 2 2 2
2 3 3 4 4 3 3 4 4 5 6 8 9 9 9 7 6 5 4 4 3 3 2 2 2 2 2 2 2 2 3 3 3 3 3 3 3 3 2 2 2 2 2
2 3 4 5 5 4 4 4 5 5 6 7 8 9 10 9 7 5 5 4 3 3 3 2 2 2 2 2 2 2 3 3 3 2 2 2 2 2 1 1 1 1 1
2 3 5 6 6 5 4 4 5 6 6 6 7 9 11 10 7 5 4 4 3 3 4 4 3 3 3 2 2 3 2 2 2 1 1 1 1 1 1 1 1 1 1
2 3 5 6 6 6 6 5 5 6 6 6 6 8 10 10 7 4 3 3 3 3 4 4 5 5 4 3 2 2 1 1 1 1 1 1 1 1 1 1 1 1 1
2 3 3 4 6 7 7 6 5 5 5 5 5 6 8 8 5 3 2 2 2 2 3 4 5 5 5 3 2 1 1 0 0 0 1 1 1 1 1 1 1 1 1
1 1 2 2 4 6 6 5 4 4 4 5 5 6 6 6 5 3 3 2 2 2 2 3 4 4 4 3 1 1 1 0 0 0 0 1 1 1 1 1 1 1 1
0 0 1 1 2 4 5 4 3 3 4 5 6 6 6 6 5 4 4 3 3 3 3 2 2 3 3 2 1 1 1 1 0 0 0 0 0 1 1 1 1 1 1
0 0 0 1 1 3 4 4 4 4 4 5 5 6 6 6 6 5 5 4 4 3 3 3 2 2 2 1 1 1 1 1 0 0 0 0 0 0 1 1 1 1 1
0 0 0 0 1 2 3 4 4 4 3 4 4 5 5 6 6 6 5 5 4 3 3 3 3 2 1 1 1 1 0 0 0 0 0 0 0 0 0 1 1 1 1
0 0 0 0 0 1 2 2 3 3 2 3 3 4 4 5 6 6 5 4 4 3 4 4 3 2 1 1 1 0 0 0 0 0 0 0 0 0 0 0 1 1 1
0 0 0 0 0 0 1 2 2 2 2 2 2 3 3 4 5 5 4 4 3 3 3 3 3 2 1 1 0 0 0 0 0 0 0 0 0 0 0 0 0 1 1
0 0 0 0 0 0 1 2 3 2 1 1 2 2 3 3 3 3 3 3 3 3 3 2 1 1 0 0 0 0 0 0 0 0 0 0 0 0 0 0 0 0 1
0 0 0 0 0 0 1 2 3 2 1 0 1 2 2 2 2 2 2 2 2 2 2 1 1 0 0 0 0 0 0 0 0 0 0 0 0 0 0 0 0 0 0
0 0 0 0 0 1 2 3 2 1 0 0 1 1 2 2 1 1 1 1 2 1 1 1 0 0 0 0 0 0 0 0 0 0 0 0 0 0 0 0 0 0 0
0 0 0 0 0 1 2 3 2 1 0 0 0 1 1 1 1 1 1 1 1 1 1 0 0 0 0 0 0 0 0 0 0 0 0 0 0 0 0 0 0 0 0
0 0 0 0 1 1 2 2 1 1 0 0 0 1 1 1 1 1 1 1 1 0 0 0 0 0 0 0 0 0 0 0 0 0 0 0 0 0 0 0 0 0 0
0 0 0 1 1 1 1 1 1 0 0 0 0 1 1 1 1 1 1 1 0 0 0 0 0 0 0 0 0 0 0 0 0 0 0 0 0 0 0 0 0 0 0
1 1 1 1 1 1 1 1 0 0 0 0 0 0 0 1 1 1 1 1 0 0 0 0 0 0 0 0 0 0 0 0 0 0 0 0 0 0 0 0 0 0 0
1 1 1 1 1 1 1 1 0 0 0 0 0 0 0 0 0 0 0 0 0 0 0 0 0 0 0 0 0 0 0 0 0 0 0 0 0 0 0 0 0 0 0
1 1 1 1 1 1 1 1 0 0 0 0 0 0 0 0 0 0 0 0 0 0 0 0 0 0 0 0 0 0 0 0 0 0 0 0 0 0 0 0 0 0 0
1 0 0 1 1 1 1 0 0 0 0 0 0 0 0 0 0 0 0 0 0 0 0 0 0 0 0 0 0 0 0 0 0 0 0 0 0 0 0 0 0 0 0

GEFSMW_con_maxscp_270.txt.gz
SCP
1 1 2 3 4 6 6 6 5 4 5 5 5 5 4 4 3 4 4 4 4 4 3 3 3 3 3 3 3 4 5 5 5 4 3 2 2 3 3 3 3 2 2
2 2 2 3 4 6 6 6 5 5 5 5 6 5 5 4 4 4 4 4 4 4 4 4 5 6 7 6 5 5 7 6 4 4 3 2 2 2 3 3 3 3 2
2 2 2 3 5 6 6 6 6 6 6 5 5 5 5 5 5 5 5 4 4 5 6 7 8 10 11 9 7 7 8 6 3 3 2 2 2 2 2 3 3 3 3
2 2 2 3 4 6 6 6 6 7 7 6 5 5 5 5 6 5 5 5 5 6 7 8 10 10 10 9 8 9 9 6 3 2 2 2 2 3 3 3 3 3 3
2 3 3 3 4 5 6 6 6 7 7 6 6 6 5 6 7 6 6 6 6 6 6 7 8 8 9 10 10 10 8 6 4 2 2 2 3 3 3 3 4 4 3
3 4 4 5 5 5 6 6 6 7 7 7 6 6 6 7 8 9 8 7 6 5 6 7 8 9 11 12 11 9 7 5 4 3 3 3 4 4 4 4 4 5 5
4 5 5 6 7 8 8 7 7 7 8 8 7 7 7 8 9 10 10 9 6 5 6 7 10 13 14 11 9 7 5 4 4 4 4 4 4 4 4 4 4 5 5
3 4 5 6 7 9 10 11 9 8 9 10 10 10 10 9 10 11 10 9 7 6 6 7 10 12 11 8 6 5 5 4 4 4 4 4 3 3 3 3 3 3 3
2 3 3 4 5 7 9 11 11 10 11 12 12 11 11 10 10 10 9 8 8 6 5 6 7 7 6 5 4 4 5 5 5 4 4 4 3 2 2 2 2 2 2
2 2 2 3 4 5 6 8 9 10 10 11 11 10 9 9 9 8 7 7 6 6 5 4 4 4 4 4 4 4 5 5 5 5 4 4 4 3 3 3 3 3 3
1 2 2 2 3 3 4 5 7 8 8 7 7 7 7 8 7 7 6 6 6 6 5 4 3 4 4 4 4 5 5 6 6 6 5 4 4 4 3 3 4 4 4
1 2 2 2 2 2 3 4 6 7 6 5 4 5 5 6 6 6 6 7 7 7 6 5 4 4 4 4 4 5 5 6 6 6 5 4 3 3 4 4 4 4 4
2 2 2 3 3 4 4 5 6 7 6 5 3 3 4 4 5 5 6 8 8 8 8 6 5 5 5 5 4 4 5 5 5 4 4 3 2 2 3 3 3 3 3
2 2 2 3 4 5 6 6 6 7 6 5 3 3 3 3 4 5 6 8 9 10 9 8 6 5 6 5 5 4 4 4 3 3 2 2 2 2 2 2 2 2 2
3 2 2 3 3 5 6 7 7 6 5 4 3 3 3 4 4 5 6 7 8 9 10 9 8 7 7 6 5 4 4 3 3 2 1 1 1 1 1 1 1 1 2
3 2 2 2 2 3 4 6 6 5 4 3 3 3 4 5 5 5 6 6 7 8 9 10 9 9 7 5 4 4 5 4 3 2 1 1 1 0 0 0 0 1 1
2 2 3 3 3 3 3 3 4 3 3 3 3 3 4 5 6 6 7 8 7 7 8 9 9 8 6 3 2 3 5 5 3 1 1 1 0 0 0 0 0 0 0
2 2 3 4 4 4 3 3 2 2 3 3 4 3 3 4 5 7 8 9 8 7 7 7 7 7 5 2 1 2 4 4 2 1 1 1 1 0 0 0 0 0 0
2 2 2 3 4 4 3 2 2 2 3 4 4 3 3 3 4 5 6 6 6 5 5 5 6 5 3 1 0 2 3 2 1 1 0 0 0 0 0 0 0 1 0
2 2 2 2 3 4 3 2 2 2 3 4 5 4 3 3 3 3 3 3 3 3 3 4 4 4 3 1 0 1 1 1 1 0 0 0 0 0 0 0 1 1 1
2 2 2 2 3 3 3 2 2 3 4 5 5 5 4 3 2 2 2 2 2 2 2 2 3 3 2 1 0 0 0 0 0 0 0 0 0 0 0 0 0 0 0
3 3 3 3 3 3 3 3 4 5 6 6 5 5 3 2 2 2 2 2 2 1 1 1 2 1 1 1 0 0 0 0 0 0 0 0 0 0 0 0 0 0 0
3 3 3 3 3 3 4 4 5 6 6 5 5 4 3 2 2 2 2 2 2 1 1 1 1 1 1 1 0 0 0 0 0 0 0 0 0 0 0 0 0 0 0
3 3 3 3 3 4 4 5 5 5 4 4 4 4 3 3 3 3 2 2 2 2 1 1 1 1 1 1 0 0 0 0 0 0 0 0 0 0 0 0 0 0 0
2 2 2 2 3 4 4 4 4 4 3 3 4 3 3 3 3 3 2 2 2 1 1 1 1 1 1 1 0 0 0 0 0 0 0 0 0 0 0 0 0 0 0
1 1 2 2 3 4 4 4 3 3 3 3 3 3 3 4 3 3 2 1 1 1 1 0 0 0 0 0 0 0 0 0 0 0 0 0 0 0 0 0 0 0 0